C/2014 B1 ( Schwartz )

Japanese version
Home page
Updated on March 25, 2017

---------------------------------------------------------------------

* Profile

Discovery Date January 28, 2014
Magnitude 19.9 mag
Discoverer Michael Schwartz (Tenagra Observatory near Nogales, AZ, U.S.A.)

* Pictures

* Orbital Elements

Epoch 2017 Sept. 4.0 TT = JDT 2458000.5
T 2017 Sept. 10.52643 TT                                MPCW
q   9.5566426            (2000.0)            P               Q
z  -0.0003949      Peri.  345.84118     -0.85028924     -0.50400878
 +/-0.0000018      Node   161.39571     +0.51719839     -0.85352833
e   1.0037736      Incl.   28.37227     +0.09753994     +0.13215348
From 209 observations 2014 Jan. 28-2016 Nov. 3, mean residual 0".4.

* Magnitudes Graph

        m1 = -8.5 + 5 log d + 20.0 log r

---------------------------------------------------------------------

The orbital elements are published on M.P.E.C. 2016-V116.
The magnitudes graphs are made with Comet for Windows.

---------------------------------------------------------------------

Copyright(C) Seiichi Yoshida (comet@aerith.net). All rights reserved.